Regional Weather Roundup
Issued by NWS

Home | Current Version | Previous Version | Graphics & Text | Print | Product List | Glossary On
Versions: 1 2 3 4 5 6 7 8 9 10 11 12 13 14 15 16 17 18 19 20 21 22 23 24 25 26 27 28 29 30 31 32 33 34 35 36 37 38 39 40 41 42 43 44 45 46 47 48 49 50
000
ASUS43 KTOP 181459
RWRKS

WEATHER ROUNDUP FOR KANSAS
NATIONAL WEATHER SERVICE GOODLAND KS
1000 AM CDT THU SEP 18 2014

NOTE:  "FAIR" INDICATES FEW OR NO CLOUDS BELOW 12,000 FEET WITH NO
SIGNIFICANT WEATHER AND/OR OBSTRUCTIONS TO VISIBILITY.

KSZ001>006-013>018-027>032-041>047-181600-
NORTHWEST KANSAS

CITY           SKY/WX    TMP DP  RH WIND       PRES   REMARKS
GOODLAND       CLOUDY    65  62  90 S6        30.00R
HAYS           CLOUDY    64  61  88 E12       29.96R
HILL CITY      CLOUDY    63  62  97 E9        29.97R FOG
RUSSELL        CLOUDY    64  63  96 E10       29.95R FOG
$$

KSZ061>065-074>080-084>089-181600-
SOUTHWEST KANSAS

CITY           SKY/WX    TMP DP  RH WIND       PRES   REMARKS
DODGE CITY     SUNNY     75  56  51 SW7       29.96R
ELKHART          N/A     75  60  59 SW7         N/A
GARDEN CITY    SUNNY    N/A N/A N/A CALM      29.95S
GREAT BEND     CLOUDY    70  64  83 SE13      29.95R
LIBERAL        SUNNY     72  61  68 W6        29.99R
PRATT          MOSUNNY   73  63  68 S18       29.97R
$$

KSZ066>073-081>083-090>101-181600-
SOUTHEAST KANSAS

CITY           SKY/WX    TMP DP  RH WIND       PRES   REMARKS
CHANUTE        CLOUDY    66  63  90 CALM      29.99F
COFFEYVILLE    CLOUDY    67  62  84 S14       29.96F
HUTCHINSON     CLOUDY    72  63  73 S30G36    29.96R
NEWTON         CLOUDY    66  57  72 S18       30.01R
PARSONS        CLOUDY    65  64  97 VRB3      29.99F
WICHITA INTL   PTSUNNY   71  60  68 S17       29.98R
WICHITA JABRA  MOSUNNY   69  60  73 S15G22    29.98S
WINFIELD       CLOUDY    67  62  84 SE12      30.01R
$$

KSZ007>012-019>026-033>040-048>060-102>105-181600-
NORTHEAST KANSAS

CITY           SKY/WX    TMP DP  RH WIND       PRES   REMARKS
CONCORDIA      CLOUDY    65  65 100 SE13      29.99R FOG
EMPORIA        CLOUDY    64  64 100 CALM      29.98R THUNDER
LAWRENCE       CLOUDY    63  60  90 E9        30.03R FOG
MANHATTAN      CLOUDY    68  64  87 E7        29.99R
OLATHE IND     CLOUDY    62  62 100 E8        30.03R FOG
OLATHE EXE     CLOUDY    61  61 100 E8        30.02R FOG
SALINA         CLOUDY    69  64  84 E13       29.97R
TOPEKA BILLARD CLOUDY    66  63  90 E9        30.01R FOG
TOPEKA FORBES  CLOUDY    64  62  93 E9        30.01R FOG
$$


USA.gov is the U.S. government's official web portal to all federal, state and local government web resources and services.